Track STARLINK-2133 now! 10-day predictions STARLINK-2133 is classified as:
1 47406U 21005BK 21060.91667824 -.00017545 00000-0 -18561-3 0 9999 2 47406 53.0555 12.4492 0000866 58.2031 67.5466 15.62834358 1827